Weather in Stara Chortoryia

Ukraine / Zhytomyr Region     50°00′41″N   27°41′51″E
temp.,
°C
wind,
m/s
gust,
m/s
humid.,
%
clouds,
%
prec.,
mm/h
press.,
hPa
HPBL,
m
20 may, fri
fri2000:00+10wnw348166 0.0 102350
03:00+9w34819 0.0 102346
06:00+9wsw3580100 0.0 102285
09:00+16wsw466596 0.0 1021308
12:00+20wsw5757100 0.0 1019934
15:00+22w6852100 0.0 10181435
18:00+20w5965100 0.0 1016436
21:00+16wsw410846 0.0 1016186
21 may, sat
sat2100:00+14wsw5138731 0.1 1014292
03:00+13wsw5149070 0.1 1013290
06:00+13wsw5128498 0.0 1011268
09:00+16wsw71577100 0.2 1010766
12:00+17wsw8168671 1.7 1009923
15:00+18w9148732 3.0 10091002
18:00+17nw1116670 0.3 10101478
21:00+14wnw714684 0.3 1010914
22 may, sun
sun2200:00+12w714712 0.0 1010820
03:00+11w714795 0.0 1008840
06:00+11w8148189 0.0 10061080
09:00+10wnw9158195 0.4 10061233
12:00+9wnw91490100 0.6 10071301
15:00+9wnw91490100 0.8 10071006
18:00+9nw71189100 0.1 1008824
21:00+9nw61093100 0.1 1008661
23 may, mon
mon2300:00+8wnw51096100 0.5 1009548
03:00+8n4796100 1.5 1009461
06:00+7nne479596 0.3 1011442
09:00+9ne468169 0.3 1012663
12:00+12nne4567100 0.3 10131238
15:00+14nne4554100 0.6 10131489
18:00+14n345542 0.0 10131204
21:00+9nnw33716 0.0 101422
24 may, tue
tue2400:00+7nnw227824 0.0 101610
03:00+6wnw11825 0.0 101610
06:00+6nw11830 0.0 101710
09:00+12ne22640 0.0 1017393
12:00+15e33473 0.0 10171575
15:00+17ese22445 0.0 10171677
18:00+17ese23485 0.0 10171509
21:00+11ese46714 0.0 101973